AirNav   Bose ProFlight Series 2 Headset
 
 521 users online  

78PA SAP America Heliport
Newtown Square, Pennsylvania, USA

GOING TO NEWTOWN SQUARE?


FAA INFORMATION EFFECTIVE 02 JANUARY 2020

Location

FAA Identifier: 78PA
Lat/Long: 39-59-13.3000N 075-24-57.4000W
39-59.221667N 075-24.956667W
39.9870278,-75.4159444
(estimated)
Elevation: 417 ft. / 127 m (estimated)
Time zone: UTC -5 (UTC -4 during Daylight Saving Time)
Zip code: 19073

Heliport Operations

Heliport use: Private use. Permission required prior to landing
Activation date: 02/2007
Control tower: no
ARTCC: NEW YORK CENTER
FSS: WILLIAMSPORT FLIGHT SERVICE STATION
Attendance: 0600-0000
Wind indicator: lighted
Segmented circle: no
Lights: FOR PERIMETER AND LEAD-IN LGTS CALL 610-661-3600.

Heliport Communications

WX AWOS-3T at OQN (8 nm W): 121.4 ((610) 692-6190)
WX ASOS at PHL (11 nm SE): PHONE 215-492-9617
WX AWOS-3 at LOM (11 nm NE): 118.925 (215-646-1068)
WX ASOS at PTW (16 nm NW): 119.425 (610-495-0823)
WX ASOS at PNE (19 nm E): 121.15 (215-677-0146)

Nearby radio navigation aids

VOR radial/distance  VOR name  Freq  Var
MXEr080/12.4MODENA VORTAC113.2009W
PTWr164/15.6POTTSTOWN VORTAC116.5009W
DQOr035/20.5DUPONT VORTAC114.0010W
OODr356/21.7WOODSTOWN VORTAC112.8010W
ARDr246/28.3YARDLEY VOR/DME108.2010W
VCNr332/34.0CEDAR LAKE VOR/DME115.2010W
GXUr280/37.7MC GUIRE VORTAC110.6012W
ETXr170/37.7EAST TEXAS VOR/DME110.2009W

 
NDB name  Hdg/Dist  Freq  Var  ID
AMBLER228/10.327512WING .. -. --.
RAINBOW350/36.536311WRNB .-. -. -...

Heliport Services

Runway Information

Helipad H1

Dimensions: 45 x 45 ft. / 14 x 14 m
Surface: concrete
Runway edge lights: PERI
ALSO LEAD-IN LGTS.
Traffic pattern: leftleft

Heliport Ownership and Management from official FAA records

Ownership: Privately-owned
Owner: SAP AMERICA INC.
3999 WEST CHESTER PIKE
NEWTOWN SQUARE, PA 19073
Phone 610-661-3600
Manager: JACOB DRUMHELLER
3999 WEST CHESTER PIKE
NEWTOWN SQUARE, PA 19073
Phone (610) 661-3313

Additional Remarks

THIS PVT HELIPORT RQRS WRITTEN APVL FOR ACES.
EMERGENCY SERVICE HELICOPTERS CONTACT MANAGER FOR ACCESS DETAILS PHONE 610-661-3600.
USE LICENSED APCH/DEP CORRIDORS 020/200 DEGS AND 250/070 DEGS. CORRIDORS ALSO PROVIDE FOR NOISE ABATEMENT AND GOOD COMMUNITY RELATIONS. AVOID RESIDENTIAL AREAS AROUND FACILITY.
56 FT MAXIMUM ROTOR DIAMETER.
MAX GROSS WEIGHT IS 30,000 LBS..
FOR CD CTC PHILADELPHIA APCH AT 800-354-9884.

Instrument Procedures

There are no published instrument procedures at 78PA.

Some nearby airports with instrument procedures:

KOQN - Brandywine Regional Airport (8 nm W)
KPHL - Philadelphia International Airport (11 nm SE)
KLOM - Wings Field Airport (11 nm NE)
N10 - Perkiomen Valley Airport (13 nm N)
7N7 - Spitfire Aerodrome (15 nm S)
KPTW - Heritage Field Airport (16 nm NW)
N57 - New Garden Airport (19 nm SW)
KPNE - Northeast Philadelphia Airport (19 nm E)
 
Loc | Ops | Rwys | IFR | FBO | Links
Com | Nav | Svcs | Stats | Notes
Area around 78PA (SAP America Heliport)
 
Road maps at: MapQuest Bing Google
 
Aerial photo
WARNING: Photo may not be current or correct
Aerial photo of 78PA (SAP America Heliport)
Photo taken 05-Jun-2012
looking east.

Do you have a better or more recent aerial photo of SAP America Heliport that you would like to share? If so, please send us your photo.

 
Sectional chart

 
Airport distance calculator
Flying to SAP America Heliport? Find the distance to fly.

From to 78PA

Sunrise and sunset
Times for 18-Jan-2020
 Local
(UTC-5)
 Zulu
(UTC)
Morning civil twilight06:5211:52
Sunrise07:2112:21
Sunset17:0322:03
Evening civil twilight17:3322:33

Current date and time
Zulu (UTC)  18-Jan-2020 09:35:12
Local (UTC-5)  18-Jan-2020 04:35:12
 
METAR
KOQN 
8nm W 
180915Z AUTO 01003KT 10SM CLR M05/M14 A3060 RMK AO2
KPHL 
11nm SE 
180854Z 35007KT 10SM OVC150 M06/M18 A3064 RMK AO2 SLP376 T10561178 56018 $
KLOM 
11nm NE 
180915Z AUTO 00000KT 10SM CLR M07/M16 A3062 RMK AO2 T10671161
KPTW 
16nm NW 
180854Z AUTO 00000KT 10SM CLR M07/M16 A3064 RMK AO2 SLP375 T10721156 56016
KPNE 
19nm E 
180854Z AUTO 01006KT 10SM CLR M06/M17 A3065 RMK AO2 SLP381 T10561167 58015
TAF
KPHL 
11nm SE 
180520Z 1806/1912 35006KT P6SM BKN200 FM180800 VRB04KT P6SM BKN150 FM181600 17006KT 6SM -SN BR OVC060 FM181900 17007KT 2SM -SN BR OVC020 WS020/23035KT FM182100 18011KT 2SM -SNPL BR OVC008 WS020/23035KT FM182300 19011KT 2SM -RAPL BR OVC005 WS020/23035KT FM190000 20011KT 3SM -RA BR OVC005 WS020/23035KT FM190200 23011KT 3SM BR OVC005 WS020/23035KT
KPNE 
19nm E 
180520Z 1806/1906 35005KT P6SM BKN200 FM181600 VRB04KT 6SM -SN OVC060 FM181900 16005KT 2SM -SN BR OVC020 WS020/23035KT FM182100 18009KT 2SM -SNPL BR OVC008 WS020/23035KT FM182300 19009KT 2SM -RAPL BR OVC005 WS020/23035KT FM190200 20009KT 2SM BR OVC005 WS020/23035KT
NOTAMs
Click for the latest NOTAMs
NOTAMs are issued by the DoD/FAA and will open in a separate window not controlled by AirNav.

 

 
 

Would you like to see your business listed on this page?

 If your business provides an interesting product or service to pilots, flight crews, aircraft, or users of the SAP America Heliport, you should consider listing it here.  To start the listing process, click on the button below
 
Add a business
 

Other Pages about SAP America Heliport

Update a link
 
Copyright © AirNav, LLC. All rights reserved. Privacy Policy  Contact